Year,Month,Day,Hour,Minute,Value (Times are PST for temperature in C)
2011,02,21,00,00,-0.40
2011,02,21,00,01,-0.40
2011,02,21,00,02,-0.40
2011,02,21,00,03,-0.40
2011,02,21,00,04,-0.40
2011,02,21,00,05,-0.40
2011,02,21,00,06,-0.40
2011,02,21,00,07,-0.40
2011,02,21,00,08,-0.40
2011,02,21,00,09,-0.40
2011,02,21,00,10,-0.50
2011,02,21,00,11,-0.50
2011,02,21,00,12,-0.50
2011,02,21,00,13,-0.50
2011,02,21,00,14,-0.50
2011,02,21,00,15,-0.50
2011,02,21,00,16,-0.50
2011,02,21,00,17,-0.50
2011,02,21,00,18,-0.50
2011,02,21,00,19,-0.60
2011,02,21,00,20,-0.60
2011,02,21,00,21,-0.60
2011,02,21,00,22,-0.60
2011,02,21,00,23,-0.60
2011,02,21,00,24,-0.60
2011,02,21,00,25,-0.60
2011,02,21,00,26,-0.70
2011,02,21,00,27,-0.70
2011,02,21,00,28,-0.70
2011,02,21,00,29,-0.70
2011,02,21,00,30,-0.60
2011,02,21,00,31,-0.60
2011,02,21,00,32,-0.60
2011,02,21,00,33,-0.60
2011,02,21,00,34,-0.60
2011,02,21,00,35,-0.60
2011,02,21,00,36,-0.70
2011,02,21,00,37,-0.70
2011,02,21,00,38,-0.70
2011,02,21,00,39,-0.70
2011,02,21,00,40,-0.70
2011,02,21,00,41,-0.70
2011,02,21,00,42,-0.70
2011,02,21,00,43,-0.70
2011,02,21,00,44,-0.70
2011,02,21,00,45,-0.70
2011,02,21,00,46,-0.70
2011,02,21,00,47,-0.70
2011,02,21,00,48,-0.70
2011,02,21,00,49,-0.70
2011,02,21,00,50,-0.70
2011,02,21,00,51,-0.70
2011,02,21,00,52,-0.70
2011,02,21,00,53,-0.70
2011,02,21,00,54,-0.80
2011,02,21,00,55,-0.80
2011,02,21,00,56,-0.80
2011,02,21,00,57,-0.80
2011,02,21,00,58,-0.80
2011,02,21,00,59,-0.80
2011,02,21,01,00,-0.80
2011,02,21,01,01,-0.80
2011,02,21,01,02,-0.80
2011,02,21,01,03,-0.80
2011,02,21,01,04,-0.90
2011,02,21,01,05,-0.90
2011,02,21,01,06,-0.90
2011,02,21,01,07,-0.90
2011,02,21,01,08,-0.90
2011,02,21,01,09,-0.90
2011,02,21,01,10,-0.90
2011,02,21,01,11,-0.90
2011,02,21,01,12,-0.90
2011,02,21,01,13,-0.90
2011,02,21,01,14,-1.00
2011,02,21,01,15,-1.00
2011,02,21,01,16,-1.00
2011,02,21,01,17,-1.00
2011,02,21,01,18,-1.10
2011,02,21,01,19,-1.10
2011,02,21,01,20,-1.10
2011,02,21,01,21,-1.10
2011,02,21,01,22,-1.10
2011,02,21,01,23,-1.20
2011,02,21,01,24,-1.20
2011,02,21,01,25,-1.20
2011,02,21,01,26,-1.20
2011,02,21,01,27,-1.20
2011,02,21,01,28,-1.20
2011,02,21,01,29,-1.20
2011,02,21,01,30,-1.30
2011,02,21,01,31,-1.30
2011,02,21,01,32,-1.30
2011,02,21,01,33,-1.30
2011,02,21,01,34,-1.30
2011,02,21,01,35,-1.30
2011,02,21,01,36,-1.30
2011,02,21,01,37,-1.30
2011,02,21,01,38,-1.30
2011,02,21,01,39,-1.30
2011,02,21,01,40,-1.30
2011,02,21,01,41,-1.30
2011,02,21,01,42,-1.30
2011,02,21,01,43,-1.30
2011,02,21,01,44,-1.30
2011,02,21,01,45,-1.30
2011,02,21,01,46,-1.30
2011,02,21,01,47,-1.30
2011,02,21,01,48,-1.30
2011,02,21,01,49,-1.30
2011,02,21,01,50,-1.30
2011,02,21,01,51,-1.40
2011,02,21,01,52,-1.40
2011,02,21,01,53,-1.40
2011,02,21,01,54,-1.40
2011,02,21,01,55,-1.40
2011,02,21,01,56,-1.40
2011,02,21,01,57,-1.40
2011,02,21,01,58,-1.40
2011,02,21,01,59,-1.40
2011,02,21,02,00,-1.40
2011,02,21,02,01,-1.40
2011,02,21,02,02,-1.50
2011,02,21,02,03,-1.50
2011,02,21,02,04,-1.50
2011,02,21,02,05,-1.50
2011,02,21,02,06,-1.50
2011,02,21,02,07,-1.40
2011,02,21,02,08,-1.50
2011,02,21,02,09,-1.50
2011,02,21,02,10,-1.50
2011,02,21,02,11,-1.50
2011,02,21,02,12,-1.50
2011,02,21,02,13,-1.50
2011,02,21,02,14,-1.40
2011,02,21,02,15,-1.40
2011,02,21,02,16,-1.40
2011,02,21,02,17,-1.40
2011,02,21,02,18,-1.40
2011,02,21,02,19,-1.40
2011,02,21,02,20,-1.40
2011,02,21,02,21,-1.40
2011,02,21,02,22,-1.40
2011,02,21,02,23,-1.40
2011,02,21,02,24,-1.40
2011,02,21,02,25,-1.50
2011,02,21,02,26,-1.40
2011,02,21,02,27,-1.40
2011,02,21,02,28,-1.40
2011,02,21,02,29,-1.40
2011,02,21,02,30,-1.40
2011,02,21,02,31,-1.40
2011,02,21,02,32,-1.40
2011,02,21,02,33,-1.40
2011,02,21,02,34,-1.40
2011,02,21,02,35,-1.40
2011,02,21,02,36,-1.40
2011,02,21,02,37,-1.40
2011,02,21,02,38,-1.40
2011,02,21,02,39,-1.40
2011,02,21,02,40,-1.40
2011,02,21,02,41,-1.40
2011,02,21,02,42,-1.40
2011,02,21,02,43,-1.40
2011,02,21,02,44,-1.40
2011,02,21,02,45,-1.40
2011,02,21,02,46,-1.40
2011,02,21,02,47,-1.40
2011,02,21,02,48,-1.40
2011,02,21,02,49,-1.50
2011,02,21,02,50,-1.50
2011,02,21,02,51,-1.50
2011,02,21,02,52,-1.50
2011,02,21,02,53,-1.50
2011,02,21,02,54,-1.60
2011,02,21,02,55,-1.60
2011,02,21,02,56,-1.60
2011,02,21,02,57,-1.60
2011,02,21,02,58,-1.60
2011,02,21,02,59,-1.60
2011,02,21,03,00,-1.60
2011,02,21,03,01,-1.50
2011,02,21,03,02,-1.50
2011,02,21,03,03,-1.50
2011,02,21,03,04,-1.50
2011,02,21,03,05,-1.50
2011,02,21,03,06,-1.40
2011,02,21,03,07,-1.40
2011,02,21,03,08,-1.40
2011,02,21,03,09,-1.40
2011,02,21,03,10,-1.50
2011,02,21,03,11,-1.50
2011,02,21,03,12,-1.50
2011,02,21,03,13,-1.50
2011,02,21,03,14,-1.50
2011,02,21,03,15,-1.50
2011,02,21,03,16,-1.50
2011,02,21,03,17,-1.50
2011,02,21,03,18,-1.50
2011,02,21,03,19,-1.50
2011,02,21,03,20,-1.50
2011,02,21,03,21,-1.50
2011,02,21,03,22,-1.50
2011,02,21,03,23,-1.50
2011,02,21,03,24,-1.40
2011,02,21,03,25,-1.40
2011,02,21,03,26,-1.40
2011,02,21,03,27,-1.40
2011,02,21,03,28,-1.40
2011,02,21,03,29,-1.40
2011,02,21,03,30,-1.40
2011,02,21,03,31,-1.40
2011,02,21,03,32,-1.40
2011,02,21,03,33,-1.40
2011,02,21,03,34,-1.40
2011,02,21,03,35,-1.40
2011,02,21,03,36,-1.40
2011,02,21,03,37,-1.40
2011,02,21,03,38,-1.40
2011,02,21,03,39,-1.40
2011,02,21,03,40,-1.40
2011,02,21,03,41,-1.40
2011,02,21,03,42,-1.40
2011,02,21,03,43,-1.40
2011,02,21,03,44,-1.40
2011,02,21,03,45,-1.30
2011,02,21,03,46,-1.30
2011,02,21,03,47,-1.30
2011,02,21,03,48,-1.30
2011,02,21,03,49,-1.30
2011,02,21,03,50,-1.30
2011,02,21,03,51,-1.30
2011,02,21,03,52,-1.30
2011,02,21,03,53,-1.30
2011,02,21,03,54,-1.20
2011,02,21,03,55,-1.30
2011,02,21,03,56,-1.30
2011,02,21,03,57,-1.30
2011,02,21,03,58,-1.30
2011,02,21,03,59,-1.30
2011,02,21,04,00,-1.30
2011,02,21,04,01,-1.30
2011,02,21,04,02,-1.30
2011,02,21,04,03,-1.30
2011,02,21,04,04,-1.30
2011,02,21,04,05,-1.30
2011,02,21,04,06,-1.30
2011,02,21,04,07,-1.30
2011,02,21,04,08,-1.30
2011,02,21,04,09,-1.30
2011,02,21,04,10,-1.30
2011,02,21,04,11,-1.30
2011,02,21,04,12,-1.40
2011,02,21,04,13,-1.40
2011,02,21,04,14,-1.40
2011,02,21,04,15,-1.40
2011,02,21,04,16,-1.40
2011,02,21,04,17,-1.40
2011,02,21,04,18,-1.50
2011,02,21,04,19,-1.50
2011,02,21,04,20,-1.50
2011,02,21,04,21,-1.60
2011,02,21,04,22,-1.60
2011,02,21,04,23,-1.60
2011,02,21,04,24,-1.60
2011,02,21,04,25,-1.60
2011,02,21,04,26,-1.60
2011,02,21,04,27,-1.60
2011,02,21,04,28,-1.60
2011,02,21,04,29,-1.60
2011,02,21,04,30,-1.60
2011,02,21,04,31,-1.60
2011,02,21,04,32,-1.60
2011,02,21,04,33,-1.60
2011,02,21,04,34,-1.50
2011,02,21,04,35,-1.50
2011,02,21,04,36,-1.50
2011,02,21,04,37,-1.50
2011,02,21,04,38,-1.50
2011,02,21,04,39,-1.50
2011,02,21,04,40,-1.50
2011,02,21,04,41,-1.50
2011,02,21,04,42,-1.50
2011,02,21,04,43,-1.50
2011,02,21,04,44,-1.50
2011,02,21,04,45,-1.50
2011,02,21,04,46,-1.50
2011,02,21,04,47,-1.60
2011,02,21,04,48,-1.60
2011,02,21,04,49,-1.60
2011,02,21,04,50,-1.50
2011,02,21,04,51,-1.50
2011,02,21,04,52,-1.50
2011,02,21,04,53,-1.50
2011,02,21,04,54,-1.50
2011,02,21,04,55,-1.50
2011,02,21,04,56,-1.60
2011,02,21,04,57,-1.60
2011,02,21,04,58,-1.60
2011,02,21,04,59,-1.60
2011,02,21,05,00,-1.60
2011,02,21,05,01,-1.60
2011,02,21,05,02,-1.60
2011,02,21,05,03,-1.60
2011,02,21,05,04,-1.60
2011,02,21,05,05,-1.60
2011,02,21,05,06,-1.60
2011,02,21,05,07,-1.60
2011,02,21,05,08,-1.60
2011,02,21,05,09,-1.60
2011,02,21,05,10,-1.60
2011,02,21,05,11,-1.60
2011,02,21,05,12,-1.60
2011,02,21,05,13,-1.60
2011,02,21,05,14,-1.60
2011,02,21,05,15,-1.60
2011,02,21,05,16,-1.70
2011,02,21,05,17,-1.70
2011,02,21,05,18,-1.70
2011,02,21,05,19,-1.70
2011,02,21,05,20,-1.70
2011,02,21,05,21,-1.70
2011,02,21,05,22,-1.70
2011,02,21,05,23,-1.70
2011,02,21,05,24,-1.70
2011,02,21,05,25,-1.70
2011,02,21,05,26,-1.70
2011,02,21,05,27,-1.70
2011,02,21,05,28,-1.70
2011,02,21,05,29,-1.70
2011,02,21,05,30,-1.70
2011,02,21,05,31,-1.70
2011,02,21,05,32,-1.70
2011,02,21,05,33,-1.70
2011,02,21,05,34,-1.70
2011,02,21,05,35,-1.80
2011,02,21,05,36,-1.80
2011,02,21,05,37,-1.80
2011,02,21,05,38,-1.80
2011,02,21,05,39,-1.80
2011,02,21,05,40,-1.80
2011,02,21,05,41,-1.80
2011,02,21,05,42,-1.80
2011,02,21,05,43,-1.80
2011,02,21,05,44,-1.80
2011,02,21,05,45,-1.80
2011,02,21,05,46,-1.80
2011,02,21,05,47,-1.80
2011,02,21,05,48,-1.80
2011,02,21,05,49,-1.80
2011,02,21,05,50,-1.80
2011,02,21,05,51,-1.80
2011,02,21,05,52,-1.80
2011,02,21,05,53,-1.80
2011,02,21,05,54,-1.80
2011,02,21,05,55,-1.80
2011,02,21,05,56,-1.80
2011,02,21,05,57,-1.80
2011,02,21,05,58,-1.80
2011,02,21,05,59,-1.80
2011,02,21,06,00,-1.80
2011,02,21,06,01,-1.80
2011,02,21,06,02,-1.80
2011,02,21,06,03,-1.80
2011,02,21,06,04,-1.90
2011,02,21,06,05,-1.90
2011,02,21,06,06,-1.90
2011,02,21,06,07,-1.90
2011,02,21,06,08,-1.90
2011,02,21,06,09,-1.90
2011,02,21,06,10,-1.90
2011,02,21,06,11,-1.90
2011,02,21,06,12,-2.00
2011,02,21,06,13,-2.00
2011,02,21,06,14,-2.00
2011,02,21,06,15,-2.00
2011,02,21,06,16,-2.00
2011,02,21,06,17,-2.00
2011,02,21,06,18,-2.00
2011,02,21,06,19,-2.00
2011,02,21,06,20,-2.00
2011,02,21,06,21,-2.00
2011,02,21,06,22,-2.00
2011,02,21,06,23,-1.90
2011,02,21,06,24,-1.90
2011,02,21,06,25,-1.90
2011,02,21,06,26,-1.90
2011,02,21,06,27,-1.90
2011,02,21,06,28,-2.00
2011,02,21,06,29,-1.90
2011,02,21,06,30,-1.90
2011,02,21,06,31,-2.00
2011,02,21,06,32,-2.00
2011,02,21,06,33,-2.00
2011,02,21,06,34,-2.00
2011,02,21,06,35,-1.90
2011,02,21,06,36,-1.90
2011,02,21,06,37,-1.90
2011,02,21,06,38,-1.90
2011,02,21,06,39,-1.90
2011,02,21,06,40,-1.90
2011,02,21,06,41,-1.90
2011,02,21,06,42,-1.90
2011,02,21,06,43,-1.90
2011,02,21,06,44,-1.90
2011,02,21,06,45,-1.90
2011,02,21,06,46,-1.90
2011,02,21,06,47,-1.90
2011,02,21,06,48,-1.90
2011,02,21,06,49,-2.00
2011,02,21,06,50,-1.90
2011,02,21,06,51,-1.90
2011,02,21,06,52,-2.00
2011,02,21,06,53,-1.90
2011,02,21,06,54,-2.00
2011,02,21,06,55,-1.90
2011,02,21,06,56,-1.90
2011,02,21,06,57,-2.00
2011,02,21,06,58,-2.00
2011,02,21,06,59,-2.00
2011,02,21,07,00,-2.00
2011,02,21,07,01,-2.00
2011,02,21,07,02,-2.00
2011,02,21,07,03,-2.00
2011,02,21,07,04,-2.00
2011,02,21,07,05,-2.10
2011,02,21,07,06,-2.00
2011,02,21,07,07,-2.00
2011,02,21,07,08,-2.00
2011,02,21,07,09,-2.00
2011,02,21,07,10,-2.00
2011,02,21,07,11,-2.00
2011,02,21,07,12,-1.90
2011,02,21,07,13,-1.90
2011,02,21,07,14,-1.90
2011,02,21,07,15,-1.90
2011,02,21,07,16,-1.90
2011,02,21,07,17,-1.90
2011,02,21,07,18,-1.90
2011,02,21,07,19,-1.90
2011,02,21,07,20,-1.90
2011,02,21,07,21,-1.90
2011,02,21,07,22,-1.90
2011,02,21,07,23,-1.90
2011,02,21,07,24,-1.90
2011,02,21,07,25,-1.90
2011,02,21,07,26,-2.00
2011,02,21,07,27,-2.00
2011,02,21,07,28,-2.00
2011,02,21,07,29,-2.00
2011,02,21,07,30,-1.90
2011,02,21,07,31,-1.90
2011,02,21,07,32,-1.90
2011,02,21,07,33,-1.90
2011,02,21,07,34,-1.90
2011,02,21,07,35,-1.90
2011,02,21,07,36,-1.90
2011,02,21,07,37,-1.90
2011,02,21,07,38,-1.90
2011,02,21,07,39,-1.90
2011,02,21,07,40,-1.90
2011,02,21,07,41,-1.90
2011,02,21,07,42,-1.90
2011,02,21,07,43,-1.80
2011,02,21,07,44,-1.80
2011,02,21,07,45,-1.80
2011,02,21,07,46,-1.80
2011,02,21,07,47,-1.80
2011,02,21,07,48,-1.80
2011,02,21,07,49,-1.80
2011,02,21,07,50,-1.70
2011,02,21,07,51,-1.70
2011,02,21,07,52,-1.70
2011,02,21,07,53,-1.70
2011,02,21,07,54,-1.70
2011,02,21,07,55,-1.70
2011,02,21,07,56,-1.60
2011,02,21,07,57,-1.60
2011,02,21,07,58,-1.60
2011,02,21,07,59,-1.60
2011,02,21,08,00,-1.60
2011,02,21,08,01,-1.50
2011,02,21,08,02,-1.50
2011,02,21,08,03,-1.40
2011,02,21,08,04,-1.40
2011,02,21,08,05,-1.40
2011,02,21,08,06,-1.40
2011,02,21,08,07,-1.40
2011,02,21,08,08,-1.30
2011,02,21,08,09,-1.30
2011,02,21,08,10,-1.30
2011,02,21,08,11,-1.30
2011,02,21,08,12,-1.30
2011,02,21,08,13,-1.30
2011,02,21,08,14,-1.30
2011,02,21,08,15,-1.20
2011,02,21,08,16,-1.20
2011,02,21,08,17,-1.20
2011,02,21,08,18,-1.20
2011,02,21,08,19,-1.20
2011,02,21,08,20,-1.20
2011,02,21,08,21,-1.20
2011,02,21,08,22,-1.10
2011,02,21,08,23,-1.10
2011,02,21,08,24,-1.10
2011,02,21,08,25,-1.10
2011,02,21,08,26,-1.10
2011,02,21,08,27,-1.10
2011,02,21,08,28,-1.10
2011,02,21,08,29,-1.00
2011,02,21,08,30,-1.00
2011,02,21,08,31,-1.00
2011,02,21,08,32,-1.00
2011,02,21,08,33,-0.90
2011,02,21,08,34,-0.90
2011,02,21,08,35,-0.90
2011,02,21,08,36,-0.90
2011,02,21,08,37,-0.90
2011,02,21,08,38,-0.90
2011,02,21,08,39,-0.80
2011,02,21,08,40,-0.80
2011,02,21,08,41,-0.80
2011,02,21,08,42,-0.80
2011,02,21,08,43,-0.80
2011,02,21,08,44,-0.70
2011,02,21,08,45,-0.70
2011,02,21,08,46,-0.70
2011,02,21,08,47,-0.70
2011,02,21,08,48,-0.70
2011,02,21,08,49,-0.70
2011,02,21,08,50,-0.70
2011,02,21,08,51,-0.70
2011,02,21,08,52,-0.60
2011,02,21,08,53,-0.60
2011,02,21,08,54,-0.60
2011,02,21,08,55,-0.60
2011,02,21,08,56,-0.60
2011,02,21,08,57,-0.50
2011,02,21,08,58,-0.50
2011,02,21,08,59,-0.50
2011,02,21,09,00,-0.50
2011,02,21,09,01,-0.40
2011,02,21,09,02,-0.40
2011,02,21,09,03,-0.40
2011,02,21,09,04,-0.40
2011,02,21,09,05,-0.40
2011,02,21,09,06,-0.40
2011,02,21,09,07,-0.30
2011,02,21,09,08,-0.30
2011,02,21,09,09,-0.30
2011,02,21,09,10,-0.30
2011,02,21,09,11,-0.30
2011,02,21,09,12,-0.30
2011,02,21,09,13,-0.30
2011,02,21,09,14,-0.20
2011,02,21,09,15,-0.20
2011,02,21,09,16,-0.20
2011,02,21,09,17,-0.20
2011,02,21,09,18,-0.20
2011,02,21,09,19,-0.20
2011,02,21,09,20,-0.20
2011,02,21,09,21,-0.20
2011,02,21,09,22,-0.10
2011,02,21,09,23,-0.10
2011,02,21,09,24,-0.10
2011,02,21,09,25,-0.10
2011,02,21,09,26,-0.10
2011,02,21,09,27,0.00
2011,02,21,09,28,0.00
2011,02,21,09,29,0.00
2011,02,21,09,30,0.00
2011,02,21,09,31,0.10
2011,02,21,09,32,0.10
2011,02,21,09,33,0.10
2011,02,21,09,34,0.10
2011,02,21,09,35,0.10
2011,02,21,09,36,0.10
2011,02,21,09,37,0.10
2011,02,21,09,38,0.20
2011,02,21,09,39,0.20
2011,02,21,09,40,0.20
2011,02,21,09,41,0.20
2011,02,21,09,42,0.20
2011,02,21,09,43,0.30
2011,02,21,09,44,0.30
2011,02,21,09,45,0.30
2011,02,21,09,46,0.30
2011,02,21,09,47,0.30
2011,02,21,09,48,0.40
2011,02,21,09,49,0.40
2011,02,21,09,50,0.40
2011,02,21,09,51,0.50
2011,02,21,09,52,0.50
2011,02,21,09,53,0.50
2011,02,21,09,54,0.50
2011,02,21,09,55,0.60
2011,02,21,09,56,0.60
2011,02,21,09,57,0.60
2011,02,21,09,58,0.70
2011,02,21,09,59,0.70
2011,02,21,10,00,0.70
2011,02,21,10,01,0.70
2011,02,21,10,02,0.80
2011,02,21,10,03,0.80
2011,02,21,10,04,0.80
2011,02,21,10,05,0.80
2011,02,21,10,06,0.80
2011,02,21,10,07,0.90
2011,02,21,10,08,0.90
2011,02,21,10,09,1.00
2011,02,21,10,10,1.00
2011,02,21,10,11,1.00
2011,02,21,10,12,1.10
2011,02,21,10,13,1.10
2011,02,21,10,14,1.10
2011,02,21,10,15,1.10
2011,02,21,10,16,1.20
2011,02,21,10,17,1.20
2011,02,21,10,18,1.20
2011,02,21,10,19,1.20
2011,02,21,10,20,1.20
2011,02,21,10,21,1.20
2011,02,21,10,22,1.30
2011,02,21,10,23,1.30
2011,02,21,10,24,1.30
2011,02,21,10,25,1.30
2011,02,21,10,26,1.30
2011,02,21,10,27,1.30
2011,02,21,10,28,1.30
2011,02,21,10,29,1.40
2011,02,21,10,30,1.40
2011,02,21,10,31,1.40
2011,02,21,10,32,1.50
2011,02,21,10,33,1.50
2011,02,21,10,34,1.60
2011,02,21,10,35,1.60
2011,02,21,10,36,1.60
2011,02,21,10,37,1.70
2011,02,21,10,38,1.70
2011,02,21,10,39,1.70
2011,02,21,10,40,1.80
2011,02,21,10,41,1.80
2011,02,21,10,42,1.80
2011,02,21,10,43,1.80
2011,02,21,10,44,1.80
2011,02,21,10,45,1.80
2011,02,21,10,46,1.80
2011,02,21,10,47,1.90
2011,02,21,10,48,1.90
2011,02,21,10,49,2.00
2011,02,21,10,50,2.10
2011,02,21,10,51,2.10
2011,02,21,10,52,2.20
2011,02,21,10,53,2.20
2011,02,21,10,54,2.30
2011,02,21,10,55,2.30
2011,02,21,10,56,2.40
2011,02,21,10,57,2.40
2011,02,21,10,58,2.50
2011,02,21,10,59,2.60
2011,02,21,11,00,2.60
2011,02,21,11,01,2.70
2011,02,21,11,02,2.70
2011,02,21,11,03,2.80
2011,02,21,11,04,2.80
2011,02,21,11,05,2.90
2011,02,21,11,06,2.90
2011,02,21,11,07,2.90
2011,02,21,11,08,3.00
2011,02,21,11,09,3.00
2011,02,21,11,10,3.10
2011,02,21,11,11,3.10
2011,02,21,11,12,3.10
2011,02,21,11,13,3.20
2011,02,21,11,14,3.20
2011,02,21,11,15,3.20
2011,02,21,11,16,3.30
2011,02,21,11,17,3.30
2011,02,21,11,18,3.30
2011,02,21,11,19,3.30
2011,02,21,11,20,3.40
2011,02,21,11,21,3.40
2011,02,21,11,22,3.40
2011,02,21,11,23,3.40
2011,02,21,11,24,3.50
2011,02,21,11,25,3.50
2011,02,21,11,26,3.60
2011,02,21,11,27,3.60
2011,02,21,11,28,3.60
2011,02,21,11,29,3.60
2011,02,21,11,30,3.70
2011,02,21,11,31,3.70
2011,02,21,11,32,3.70
2011,02,21,11,33,3.70
2011,02,21,11,34,3.70
2011,02,21,11,35,3.80
2011,02,21,11,36,3.80
2011,02,21,11,37,3.80
2011,02,21,11,38,3.80
2011,02,21,11,39,3.90
2011,02,21,11,40,3.90
2011,02,21,11,41,3.90
2011,02,21,11,42,3.90
2011,02,21,11,43,4.00
2011,02,21,11,44,4.00
2011,02,21,11,45,4.10
2011,02,21,11,46,4.10
2011,02,21,11,47,4.10
2011,02,21,11,48,4.10
2011,02,21,11,49,4.20
2011,02,21,11,50,4.20
2011,02,21,11,51,4.30
2011,02,21,11,52,4.30
2011,02,21,11,53,4.30
2011,02,21,11,54,4.40
2011,02,21,11,55,4.40
2011,02,21,11,56,4.50
2011,02,21,11,57,4.50
2011,02,21,11,58,4.60
2011,02,21,11,59,4.60
2011,02,21,12,00,4.70
2011,02,21,12,01,4.70
2011,02,21,12,02,4.70
2011,02,21,12,03,4.70
2011,02,21,12,04,4.70
2011,02,21,12,05,4.80
2011,02,21,12,06,4.80
2011,02,21,12,07,4.80
2011,02,21,12,08,4.80
2011,02,21,12,09,4.90
2011,02,21,12,10,4.90
2011,02,21,12,11,5.00
2011,02,21,12,12,5.00
2011,02,21,12,13,5.10
2011,02,21,12,14,5.10
2011,02,21,12,15,5.10
2011,02,21,12,16,5.20
2011,02,21,12,17,5.20
2011,02,21,12,18,5.20
2011,02,21,12,19,5.20
2011,02,21,12,20,5.20
2011,02,21,12,21,5.20
2011,02,21,12,22,5.10
2011,02,21,12,23,5.10
2011,02,21,12,24,5.10
2011,02,21,12,25,5.10
2011,02,21,12,26,5.10
2011,02,21,12,27,5.20
2011,02,21,12,28,5.10
2011,02,21,12,29,5.10
2011,02,21,12,30,5.20
2011,02,21,12,31,5.20
2011,02,21,12,32,5.10
2011,02,21,12,33,5.10
2011,02,21,12,34,5.00
2011,02,21,12,35,4.90
2011,02,21,12,36,4.70
2011,02,21,12,37,4.60
2011,02,21,12,38,4.40
2011,02,21,12,39,4.30
2011,02,21,12,40,4.20
2011,02,21,12,41,4.10
2011,02,21,12,42,4.10
2011,02,21,12,43,4.10
2011,02,21,12,44,4.10
2011,02,21,12,45,4.10
2011,02,21,12,46,4.10
2011,02,21,12,47,4.20
2011,02,21,12,48,4.20
2011,02,21,12,49,4.20
2011,02,21,12,50,4.20
2011,02,21,12,51,4.20
2011,02,21,12,52,4.30
2011,02,21,12,53,4.30
2011,02,21,12,54,4.30
2011,02,21,12,55,4.30
2011,02,21,12,56,4.30
2011,02,21,12,57,4.30
2011,02,21,12,58,4.30
2011,02,21,12,59,4.30
2011,02,21,13,00,4.30
2011,02,21,13,01,4.30
2011,02,21,13,02,4.40
2011,02,21,13,03,4.40
2011,02,21,13,04,4.40
2011,02,21,13,05,4.40
2011,02,21,13,06,4.40
2011,02,21,13,07,4.40
2011,02,21,13,08,4.50
2011,02,21,13,09,4.50
2011,02,21,13,10,4.50
2011,02,21,13,11,4.50
2011,02,21,13,12,4.60
2011,02,21,13,13,4.60
2011,02,21,13,14,4.70
2011,02,21,13,15,4.70
2011,02,21,13,16,4.80
2011,02,21,13,17,4.80
2011,02,21,13,18,4.80
2011,02,21,13,19,4.90
2011,02,21,13,20,4.90
2011,02,21,13,21,5.00
2011,02,21,13,22,5.10
2011,02,21,13,23,5.10
2011,02,21,13,24,5.20
2011,02,21,13,25,5.20
2011,02,21,13,26,5.20
2011,02,21,13,27,5.30
2011,02,21,13,28,5.30
2011,02,21,13,29,5.30
2011,02,21,13,30,5.30
2011,02,21,13,31,5.30
2011,02,21,13,32,5.30
2011,02,21,13,33,5.30
2011,02,21,13,34,5.30
2011,02,21,13,35,5.30
2011,02,21,13,36,5.30
2011,02,21,13,37,5.30
2011,02,21,13,38,5.30
2011,02,21,13,39,5.30
2011,02,21,13,40,5.30
2011,02,21,13,41,5.30
2011,02,21,13,42,5.30
2011,02,21,13,43,5.30
2011,02,21,13,44,5.20
2011,02,21,13,45,5.20
2011,02,21,13,46,5.20
2011,02,21,13,47,5.20
2011,02,21,13,48,5.10
2011,02,21,13,49,5.10
2011,02,21,13,50,5.10
2011,02,21,13,51,5.00
2011,02,21,13,52,5.00
2011,02,21,13,53,4.90
2011,02,21,13,54,4.90
2011,02,21,13,55,4.90
2011,02,21,13,56,4.90
2011,02,21,13,57,4.90
2011,02,21,13,58,4.80
2011,02,21,13,59,4.80
2011,02,21,14,00,4.80
2011,02,21,14,01,4.80
2011,02,21,14,02,4.70
2011,02,21,14,03,4.70
2011,02,21,14,04,4.70
2011,02,21,14,05,4.60
2011,02,21,14,06,4.60
2011,02,21,14,07,4.60
2011,02,21,14,08,4.50
2011,02,21,14,09,4.50
2011,02,21,14,10,4.40
2011,02,21,14,11,4.40
2011,02,21,14,12,4.40
2011,02,21,14,13,4.30
2011,02,21,14,14,4.30
2011,02,21,14,15,4.30
2011,02,21,14,16,4.30
2011,02,21,14,17,4.30
2011,02,21,14,18,4.30
2011,02,21,14,19,4.30
2011,02,21,14,20,4.30
2011,02,21,14,21,4.30
2011,02,21,14,22,4.30
2011,02,21,14,23,4.30
2011,02,21,14,24,4.40
2011,02,21,14,25,4.40
2011,02,21,14,26,4.40
2011,02,21,14,27,4.40
2011,02,21,14,28,4.40
2011,02,21,14,29,4.40
2011,02,21,14,30,4.40
2011,02,21,14,31,4.40
2011,02,21,14,32,4.40
2011,02,21,14,33,4.40
2011,02,21,14,34,4.40
2011,02,21,14,35,4.40
2011,02,21,14,36,4.50
2011,02,21,14,37,4.50
2011,02,21,14,38,4.50
2011,02,21,14,39,4.50
2011,02,21,14,40,4.60
2011,02,21,14,41,4.60
2011,02,21,14,42,4.60
2011,02,21,14,43,4.60
2011,02,21,14,44,4.60
2011,02,21,14,45,4.60
2011,02,21,14,46,4.60
2011,02,21,14,47,4.60
2011,02,21,14,48,4.60
2011,02,21,14,49,4.60
2011,02,21,14,50,4.60
2011,02,21,14,51,4.60
2011,02,21,14,52,4.60
2011,02,21,14,53,4.60
2011,02,21,14,54,4.60
2011,02,21,14,55,4.60
2011,02,21,14,56,4.60
2011,02,21,14,57,4.60
2011,02,21,14,58,4.60
2011,02,21,14,59,4.60
2011,02,21,15,00,4.60
2011,02,21,15,01,4.70
2011,02,21,15,02,4.70
2011,02,21,15,03,4.70
2011,02,21,15,04,4.70
2011,02,21,15,05,4.70
2011,02,21,15,06,4.70
2011,02,21,15,07,4.70
2011,02,21,15,08,4.70
2011,02,21,15,09,4.60
2011,02,21,15,10,4.60
2011,02,21,15,11,4.60
2011,02,21,15,12,4.60
2011,02,21,15,13,4.60
2011,02,21,15,14,4.50
2011,02,21,15,15,4.50
2011,02,21,15,16,4.50
2011,02,21,15,17,4.50
2011,02,21,15,18,4.40
2011,02,21,15,19,4.40
2011,02,21,15,20,4.40
2011,02,21,15,21,4.40
2011,02,21,15,22,4.30
2011,02,21,15,23,4.30
2011,02,21,15,24,4.30
2011,02,21,15,25,4.30
2011,02,21,15,26,4.30
2011,02,21,15,27,4.30
2011,02,21,15,28,4.30
2011,02,21,15,29,4.30
2011,02,21,15,30,4.30
2011,02,21,15,31,4.30
2011,02,21,15,32,4.30
2011,02,21,15,33,4.30
2011,02,21,15,34,4.30
2011,02,21,15,35,4.30
2011,02,21,15,36,4.30
2011,02,21,15,37,4.40
2011,02,21,15,38,4.40
2011,02,21,15,39,4.40
2011,02,21,15,40,4.40
2011,02,21,15,41,4.40
2011,02,21,15,42,4.40
2011,02,21,15,43,4.50
2011,02,21,15,44,4.50
2011,02,21,15,45,4.50
2011,02,21,15,46,4.60
2011,02,21,15,47,4.60
2011,02,21,15,48,4.60
2011,02,21,15,49,4.70
2011,02,21,15,50,4.70
2011,02,21,15,51,4.70
2011,02,21,15,52,4.70
2011,02,21,15,53,4.70
2011,02,21,15,54,4.80
2011,02,21,15,55,4.80
2011,02,21,15,56,4.80
2011,02,21,15,57,4.80
2011,02,21,15,58,4.80
2011,02,21,15,59,4.90
2011,02,21,16,00,4.90
2011,02,21,16,01,4.90
2011,02,21,16,02,5.00
2011,02,21,16,03,5.00
2011,02,21,16,04,5.10
2011,02,21,16,05,5.10
2011,02,21,16,06,5.10
2011,02,21,16,07,5.20
2011,02,21,16,08,5.20
2011,02,21,16,09,5.30
2011,02,21,16,10,5.30
2011,02,21,16,11,5.30
2011,02,21,16,12,5.30
2011,02,21,16,13,5.40
2011,02,21,16,14,5.40
2011,02,21,16,15,5.40
2011,02,21,16,16,5.40
2011,02,21,16,17,5.40
2011,02,21,16,18,5.40
2011,02,21,16,19,5.40
2011,02,21,16,20,5.40
2011,02,21,16,21,5.40
2011,02,21,16,22,5.40
2011,02,21,16,23,5.40
2011,02,21,16,24,5.40
2011,02,21,16,25,5.40
2011,02,21,16,26,5.40
2011,02,21,16,27,5.40
2011,02,21,16,28,5.40
2011,02,21,16,29,5.40
2011,02,21,16,30,5.40
2011,02,21,16,31,5.40
2011,02,21,16,32,5.40
2011,02,21,16,33,5.30
2011,02,21,16,34,5.30
2011,02,21,16,35,5.30
2011,02,21,16,36,5.30
2011,02,21,16,37,5.30
2011,02,21,16,38,5.30
2011,02,21,16,39,5.30
2011,02,21,16,40,5.20
2011,02,21,16,41,5.20
2011,02,21,16,42,5.20
2011,02,21,16,43,5.20
2011,02,21,16,44,5.20
2011,02,21,16,45,5.20
2011,02,21,16,46,5.20
2011,02,21,16,47,5.20
2011,02,21,16,48,5.10
2011,02,21,16,49,5.10
2011,02,21,16,50,5.10
2011,02,21,16,51,5.10
2011,02,21,16,52,5.10
2011,02,21,16,53,5.10
2011,02,21,16,54,5.10
2011,02,21,16,55,5.10
2011,02,21,16,56,5.10
2011,02,21,16,57,5.10
2011,02,21,16,58,5.10
2011,02,21,16,59,5.10
2011,02,21,17,00,5.10
2011,02,21,17,01,5.00
2011,02,21,17,02,5.00
2011,02,21,17,03,5.00
2011,02,21,17,04,5.00
2011,02,21,17,05,5.00
2011,02,21,17,06,5.00
2011,02,21,17,07,5.00
2011,02,21,17,08,5.00
2011,02,21,17,09,5.00
2011,02,21,17,10,5.00
2011,02,21,17,11,5.00
2011,02,21,17,12,5.10
2011,02,21,17,13,5.10
2011,02,21,17,14,5.10
2011,02,21,17,15,5.10
2011,02,21,17,16,5.10
2011,02,21,17,17,5.10
2011,02,21,17,18,5.10
2011,02,21,17,19,5.10
2011,02,21,17,20,5.10
2011,02,21,17,21,5.10
2011,02,21,17,22,5.10
2011,02,21,17,23,5.10
2011,02,21,17,24,5.10
2011,02,21,17,25,5.10
2011,02,21,17,26,5.10
2011,02,21,17,27,5.10
2011,02,21,17,28,5.10
2011,02,21,17,29,5.10
2011,02,21,17,30,5.10
2011,02,21,17,31,5.00
2011,02,21,17,32,5.00
2011,02,21,17,33,4.90
2011,02,21,17,34,4.90
2011,02,21,17,35,4.90
2011,02,21,17,36,4.80
2011,02,21,17,37,4.80
2011,02,21,17,38,4.80
2011,02,21,17,39,4.80
2011,02,21,17,40,4.70